Location: Mentone
(34.5413°N, 85.5351°W)
Time: 23:24:47
(UTC-05:00)

Tiros 1 despin weight - Visible Passes

Search period start: 21 April 2018 00:00
Search period end: 01 May 2018 00:00
Orbit: 595 x 643 km, 48.2° (Epoch: 21 April)

Date Brightness Start Highest point End Pass type
(mag) Time Alt. Az. Time Alt. Az. Time Alt. Az.
21 Apr ? 20:54:17 10° W 20:58:17 32° NNW 21:02:20 10° NE visible
21 Apr ? 22:38:21 10° NW 22:40:56 15° N 22:41:06 15° N visible
22 Apr ? 21:11:59 10° WNW 21:15:26 22° NNW 21:18:54 10° NNE visible
22 Apr ? 22:55:56 10° NNW 22:57:32 13° N 22:57:32 13° N visible
23 Apr ? 19:46:02 10° WSW 19:50:15 44° NNW 19:54:32 10° NE visible
23 Apr ? 21:29:53 10° NW 21:32:43 16° NNW 21:35:33 10° NNE visible
23 Apr ? 23:13:01 10° NNW 23:13:46 12° NNW 23:13:46 12° NNW visible
24 Apr ? 20:03:33 10° W 20:07:19 26° NNW 20:11:06 10° NE visible
24 Apr ? 21:47:40 10° NW 21:50:04 14° N 21:52:29 10° NNE visible
24 Apr ? 23:29:44 10° NNW 23:29:53 11° NNW 23:29:53 11° NNW visible
25 Apr ? 20:21:22 10° WNW 20:24:31 19° NNW 20:27:41 10° NNE visible
25 Apr ? 22:05:03 10° NNW 22:07:28 14° N 22:08:50 13° NNE visible
26 Apr ? 20:39:16 10° NW 20:41:51 15° N 20:44:25 10° NNE visible
26 Apr ? 22:21:56 10° NNW 22:24:47 17° NNE 22:24:47 17° NNE visible
27 Apr ? 20:56:55 10° NNW 20:59:14 14° N 21:01:33 10° NNE visible
27 Apr ? 22:38:33 10° NNW 22:40:43 19° N 22:40:43 19° N visible
28 Apr ? 21:14:02 10° NNW 21:16:37 15° N 21:19:11 10° NE visible
28 Apr ? 22:55:07 10° NW 22:56:37 19° NNW 22:56:37 19° NNW visible
29 Apr ? 19:48:36 10° NW 19:50:59 14° N 19:53:21 10° NNE visible
29 Apr ? 21:30:47 10° NNW 21:33:55 18° NNE 21:35:28 16° NE visible
29 Apr ? 23:11:44 10° NW 23:12:31 15° NW 23:12:31 15° NW visible
30 Apr ? 20:06:02 10° NNW 20:08:22 14° N 20:10:42 10° NE visible
30 Apr ? 21:47:22 10° NW 21:51:08 26° NNE 21:51:22 26° NNE visible
